This is the latest recevied weather packets stored in our database for station/object WB4ZUT. If no packets are shown the sender has not sent any weather packets the latest 10 day(s).
| Time | Temp. | Humidity | Pressure | Rain* | Wind** | Luminosity | Snow |
|---|---|---|---|---|---|---|---|
| 1777502969 | 18.89° C | 57% | 1014 hPa | 0 mm | - | 214 W/m² | - |
| 1777502667 | 19.44° C | 56% | 1013.9 hPa | 0 mm | - | 227 W/m² | - |
| 1777502363 | 18.89° C | 58% | 1013.9 hPa | 0 mm | - | 258 W/m² | - |
| 1777502060 | 18.89° C | 58% | 1013.8 hPa | 0 mm | - | 275 W/m² | - |
| 1777501757 | 18.33° C | 59% | 1013.7 hPa | 0 mm | - | 278 W/m² | - |
| 1777501455 | 19.44° C | 57% | 1014 hPa | 0 mm | - | 118 W/m² | - |
| 1777501151 | 19.44° C | 55% | 1013.9 hPa | 0 mm | - | 315 W/m² | - |
| 1777500850 | 19.44° C | 56% | 1013.8 hPa | 0 mm | - | 332 W/m² | - |
| 1777500547 | 19.44° C | 55% | 1013.9 hPa | 0 mm | - | 348 W/m² | - |
| 1777500243 | 19.44° C | 56% | 1013.9 hPa | 0 mm | - | 367 W/m² | - |
| 1777499939 | 19.44° C | 54% | 1013.9 hPa | 0 mm | - | 418 W/m² | - |
| 1777499636 | 20° C | 55% | 1013.7 hPa | 0 mm | - | 412 W/m² | - |
| 1777499333 | 19.44° C | 56% | 1013.5 hPa | 0 mm | - | 415 W/m² | - |
| 1777499031 | 20° C | 56% | 1013.8 hPa | 0 mm | - | 468 W/m² | - |
| 1777498727 | 20° C | 55% | 1013.8 hPa | 0 mm | - | 454 W/m² | - |
| 1777498424 | 19.44° C | 56% | 1013.8 hPa | 0 mm | - | 497 W/m² | - |
| 1777498120 | 19.44° C | 58% | 1013.8 hPa | 0 mm | - | 465 W/m² | - |
| 1777497818 | 18.89° C | 59% | 1013.9 hPa | 0 mm | - | 474 W/m² | - |
| 1777497514 | 18.89° C | 60% | 1014.1 hPa | 0 mm | - | 116 W/m² | - |
| 1777497210 | 19.44° C | 59% | 1014 hPa | 0 mm | - | 175 W/m² | - |
| 1777496907 | 18.89° C | 60% | 1013.8 hPa | 0 mm | - | 548 W/m² | - |
| 1777496604 | 18.89° C | 61% | 1014 hPa | 0 mm | - | 565 W/m² | - |
| 1777496300 | 18.89° C | 61% | 1014 hPa | 0 mm | - | 210 W/m² | - |
| 1777495996 | 20° C | 59% | 1013.9 hPa | 0 mm | - | 201 W/m² | - |
| 1777495693 | 20° C | 58% | 1014 hPa | 0 mm | - | 631 W/m² | - |
* Rain latest hour (hover to see other rain measurements)
** Current wind speed in m/s (hover to see current wind gust speed)